Location: Jangalapalle
(16.8036°N, 80.6370°E)
Time: 11:43:41
(UTC+00:00)

Meteor 2-13 Rocket - Pass Details

Date: 05 August 2024
Orbit: 935 x 958 km, 82.5° (Epoch: 08 September)

Event Time Altitude Azimuth Distance (km) Brightness Sun altitude
Rises 14:48:09 0° 359° (N) 3,622 7.9 -23.0°
Reaches altitude 10° 14:50:40 10° 1° (N) 2,673 7.1 -23.6°
Maximum altitude 14:56:45 72° 85° (E) 994 4.3 -24.9°
Enters shadow 14:57:59 56° 145° (SE) 1,112 4.4 -25.1°
